Location: Asheville, NC
(35.6000°N, 82.5500°W)
Time: 07:03:05
(UTC-05:00)

XW-2B - Pass Details

Date: 13 February 2018
Orbit: 509 x 532 km, 97.5° (Epoch: 19 February)

Event Time Altitude Azimuth Distance (km) Brightness Sun altitude
Rises 06:39:20 0° 9° (N) 2,622 ? -8.7°
Reaches altitude 10° 06:41:26 10° 8° (N) 1,734 ? -8.3°
Maximum altitude 06:45:10 75° 283° (WNW) 532 ? -7.5°
Drops below altitude 10° 06:48:53 10° 198° (SSW) 1,730 ? -6.8°
Sets 06:50:58 0° 196° (SSW) 2,616 ? -6.4°
